Retour au catalogue

ORBCOMM FM 16 DEB

ActifLEO
NORAD 44023·DEBRIS·🇺🇸 United States

Lancé Aug 2, 1998 depuis Cape Canaveral Space Force Station

Loading…

Prochains Passages (prochaines 24 heures)

TLE

FraisSource: Space-Track

Époque: Sep 14, 2026, 01:13 UTC

1 44023U 98046S   26257.05122497  .00000314  00000-0  15814-3 0  9992
2 44023  45.0032 244.9068 0006998 204.8637 155.1874 14.35092758402230

Suivez ORBCOMM FM 16 DEB en temps réel avec AllMySat

Download on the App Store